Total_Precipitation_Accumulation
0.15 0.12 0.09 0.06 0.05 0.03 0.02 0.02 0.02 0.01 0.01 0.01 0.01 0.01 0.02 0.02 0.03 0.06 0.08 0.10 0.13 0.18 0.24 0.32 0.45 0.63 0.80 0.79 0.68 0.56 0.46 0.38 0.33 0.23 0.18 0.09 0.05 0.04 0.02 0.01 0.00 0.00 0.00
0.20 0.15 0.11 0.09 0.08 0.06 0.04 0.03 0.02 0.01 0.01 0.01 0.02 0.02 0.02 0.03 0.04 0.07 0.09 0.09 0.12 0.15 0.15 0.18 0.29 0.51 0.74 0.85 0.88 0.81 0.68 0.58 0.57 0.46 0.25 0.12 0.08 0.06 0.04 0.02 0.01 0.00 0.00
0.33 0.22 0.16 0.12 0.09 0.07 0.06 0.04 0.04 0.02 0.01 0.01 0.02 0.02 0.02 0.03 0.03 0.05 0.09 0.10 0.12 0.17 0.21 0.21 0.21 0.32 0.51 0.68 0.78 0.80 0.74 0.69 0.68 0.60 0.40 0.25 0.18 0.11 0.05 0.02 0.01 0.00 0.00
0.50 0.42 0.29 0.21 0.16 0.12 0.09 0.09 0.07 0.05 0.03 0.02 0.03 0.07 0.06 0.05 0.05 0.06 0.04 0.04 0.04 0.09 0.14 0.19 0.22 0.23 0.31 0.42 0.55 0.63 0.72 0.77 0.77 0.73 0.57 0.34 0.31 0.19 0.08 0.04 0.02 0.01 0.00
0.63 0.61 0.43 0.31 0.25 0.21 0.19 0.18 0.15 0.12 0.08 0.05 0.04 0.07 0.11 0.14 0.13 0.14 0.08 0.03 0.02 0.03 0.05 0.07 0.11 0.15 0.19 0.27 0.35 0.49 0.70 0.82 0.83 0.81 0.71 0.44 0.29 0.19 0.08 0.06 0.03 0.02 0.01
0.53 0.59 0.53 0.43 0.31 0.23 0.24 0.26 0.23 0.20 0.15 0.11 0.08 0.06 0.06 0.09 0.14 0.16 0.09 0.03 0.02 0.03 0.04 0.04 0.05 0.06 0.10 0.15 0.20 0.27 0.44 0.57 0.66 0.66 0.62 0.46 0.33 0.23 0.15 0.08 0.03 0.01 0.00
0.42 0.50 0.48 0.41 0.33 0.27 0.28 0.29 0.26 0.22 0.20 0.18 0.16 0.13 0.10 0.13 0.15 0.10 0.09 0.06 0.04 0.02 0.02 0.02 0.02 0.02 0.03 0.05 0.10 0.17 0.21 0.27 0.36 0.49 0.51 0.49 0.54 0.41 0.25 0.13 0.06 0.02 0.01
0.22 0.25 0.27 0.26 0.25 0.27 0.28 0.27 0.26 0.24 0.22 0.22 0.28 0.32 0.29 0.23 0.20 0.14 0.11 0.07 0.04 0.03 0.02 0.01 0.02 0.02 0.02 0.04 0.05 0.07 0.11 0.19 0.24 0.25 0.32 0.48 0.62 0.68 0.50 0.29 0.18 0.09 0.03
0.06 0.08 0.10 0.12 0.13 0.16 0.17 0.20 0.28 0.31 0.31 0.34 0.44 0.49 0.41 0.29 0.25 0.23 0.18 0.09 0.05 0.06 0.06 0.04 0.03 0.02 0.04 0.06 0.06 0.06 0.10 0.19 0.22 0.29 0.38 0.44 0.48 0.54 0.54 0.40 0.26 0.16 0.08
0.00 0.00 0.01 0.01 0.02 0.05 0.08 0.10 0.16 0.22 0.28 0.35 0.36 0.32 0.31 0.35 0.35 0.26 0.25 0.19 0.15 0.15 0.12 0.07 0.07 0.07 0.08 0.09 0.08 0.09 0.08 0.11 0.18 0.23 0.25 0.25 0.26 0.28 0.33 0.29 0.27 0.24 0.16
0.00 0.00 0.00 0.00 0.00 0.00 0.01 0.02 0.04 0.08 0.11 0.13 0.14 0.16 0.22 0.38 0.39 0.31 0.33 0.26 0.20 0.18 0.14 0.12 0.12 0.14 0.12 0.10 0.08 0.06 0.08 0.09 0.10 0.11 0.11 0.12 0.12 0.13 0.15 0.20 0.22 0.21 0.22
0.00 0.00 0.00 0.00 0.00 0.00 0.00 0.00 0.01 0.02 0.03 0.05 0.06 0.09 0.14 0.22 0.26 0.23 0.19 0.17 0.16 0.19 0.21 0.21 0.20 0.27 0.20 0.10 0.05 0.05 0.07 0.06 0.05 0.05 0.05 0.07 0.09 0.11 0.11 0.15 0.18 0.16 0.15
0.00 0.00 0.00 0.00 0.00 0.00 0.01 0.01 0.01 0.02 0.03 0.04 0.06 0.09 0.13 0.17 0.17 0.14 0.09 0.09 0.13 0.19 0.25 0.29 0.32 0.27 0.15 0.09 0.08 0.08 0.07 0.06 0.06 0.06 0.05 0.06 0.06 0.09 0.14 0.20 0.25 0.27 0.26
0.00 0.00 0.00 0.00 0.00 0.00 0.01 0.01 0.01 0.02 0.03 0.06 0.10 0.13 0.15 0.17 0.18 0.17 0.16 0.13 0.14 0.15 0.19 0.24 0.24 0.16 0.10 0.10 0.09 0.08 0.08 0.09 0.07 0.05 0.03 0.03 0.04 0.04 0.07 0.12 0.20 0.29 0.34
0.00 0.00 0.00 0.00 0.00 0.00 0.01 0.01 0.01 0.01 0.04 0.08 0.10 0.12 0.13 0.13 0.13 0.14 0.21 0.26 0.31 0.38 0.34 0.23 0.20 0.18 0.16 0.11 0.07 0.06 0.08 0.08 0.07 0.05 0.03 0.03 0.03 0.04 0.04 0.05 0.07 0.12 0.18
0.00 0.00 0.00 0.01 0.01 0.00 0.00 0.00 0.00 0.01 0.01 0.03 0.04 0.06 0.09 0.11 0.07 0.06 0.13 0.25 0.38 0.50 0.59 0.54 0.52 0.50 0.44 0.30 0.12 0.05 0.05 0.05 0.05 0.04 0.03 0.03 0.03 0.04 0.05 0.05 0.05 0.07 0.09
0.00 0.00 0.00 0.00 0.01 0.01 0.01 0.03 0.05 0.03 0.01 0.01 0.01 0.03 0.08 0.12 0.10 0.13 0.18 0.22 0.32 0.49 0.70 0.74 0.71 0.57 0.44 0.34 0.20 0.09 0.07 0.06 0.05 0.04 0.04 0.04 0.04 0.04 0.04 0.03 0.03 0.04 0.05
0.00 0.00 0.00 0.01 0.01 0.01 0.01 0.05 0.13 0.17 0.12 0.03 0.00 0.02 0.07 0.13 0.18 0.25 0.33 0.41 0.46 0.53 0.59 0.57 0.49 0.39 0.30 0.20 0.16 0.11 0.06 0.06 0.07 0.06 0.05 0.04 0.02 0.02 0.02 0.02 0.02 0.02 0.02
0.00 0.00 0.02 0.04 0.02 0.01 0.02 0.09 0.13 0.05 0.03 0.04 0.03 0.01 0.02 0.04 0.09 0.16 0.25 0.33 0.32 0.33 0.31 0.25 0.19 0.14 0.12 0.08 0.07 0.06 0.03 0.03 0.03 0.02 0.02 0.01 0.01 0.01 0.01 0.01 0.01 0.03 0.03
0.00 0.00 0.01 0.06 0.06 0.02 0.04 0.07 0.05 0.03 0.03 0.05 0.05 0.02 0.01 0.02 0.05 0.08 0.11 0.13 0.12 0.13 0.11 0.09 0.06 0.03 0.04 0.03 0.01 0.01 0.01 0.01 0.01 0.01 0.01 0.01 0.02 0.02 0.02 0.02 0.02 0.03 0.03
0.00 0.00 0.00 0.02 0.05 0.03 0.03 0.04 0.02 0.02 0.03 0.03 0.02 0.01 0.01 0.05 0.05 0.05 0.05 0.04 0.04 0.04 0.05 0.05 0.03 0.02 0.01 0.01 0.01 0.02 0.03 0.03 0.03 0.03 0.02 0.02 0.02 0.02 0.02 0.02 0.03 0.04 0.04
0.00 0.00 0.00 0.03 0.03 0.02 0.01 0.03 0.04 0.02 0.01 0.02 0.02 0.01 0.02 0.07 0.06 0.03 0.02 0.01 0.01 0.02 0.05 0.06 0.06 0.05 0.02 0.01 0.01 0.01 0.01 0.01 0.02 0.02 0.02 0.02 0.02 0.02 0.02 0.02 0.04 0.04 0.05
0.00 0.00 0.00 0.02 0.03 0.01 0.00 0.01 0.04 0.05 0.03 0.03 0.03 0.02 0.03 0.05 0.06 0.06 0.05 0.04 0.06 0.08 0.05 0.03 0.04 0.05 0.02 0.01 0.01 0.01 0.01 0.01 0.01 0.01 0.01 0.01 0.01 0.02 0.02 0.03 0.03 0.04 0.06
0.00 0.00 0.00 0.01 0.03 0.02 0.01 0.02 0.02 0.02 0.03 0.05 0.05 0.04 0.04 0.06 0.08 0.06 0.04 0.07 0.08 0.07 0.05 0.02 0.01 0.01 0.01 0.00 0.00 0.00 0.01 0.01 0.01 0.01 0.02 0.02 0.03 0.03 0.03 0.04 0.06 0.09 0.13
0.00 0.00 0.00 0.01 0.03 0.02 0.02 0.02 0.01 0.00 0.02 0.05 0.03 0.03 0.02 0.02 0.02 0.02 0.02 0.03 0.04 0.02 0.02 0.01 0.01 0.01 0.00 0.00 0.00 0.00 0.01 0.03 0.04 0.02 0.02 0.02 0.03 0.05 0.05 0.07 0.12 0.15 0.19
0.00 0.00 0.00 0.00 0.01 0.01 0.01 0.01 0.01 0.01 0.02 0.02 0.01 0.02 0.02 0.01 0.02 0.01 0.01 0.01 0.01 0.01 0.01 0.00 0.00 0.00 0.00 0.00 0.00 0.00 0.01 0.02 0.03 0.03 0.02 0.02 0.03 0.04 0.05 0.07 0.09 0.11 0.15